EWG2J EDDL-LEMD

Flight info

Callsign EWG2J
Flight time N/A
Altitude 36000
Route MODRU2T MODRU Z283 LNO DCT RASCA/N0433F370 DCT FAMEN DCT AHVEC DCT RESMI DCT DEKOD DCT DISAK DCT ARKIP DCT ARNAV DCT LMG DCT UVELI DCT OSMOB DCT ARVID DCT PPN DCT NOLSA DCT ALEPO DCT VASUM DCT BANEV
Aircraft A319/M-SDE2E3FGIJ1RWXYZ/EB1

Departure

Time 2026-05-01 14:13
Airport Düsseldorf Airport (EDDL)

Arrival

Time N/A
Airport Adolfo Suárez Madrid–Barajas Airport (LEMD)
Time Latitude Longitude Altitude Speed Heading
2026-05-01 13:08 51.28059 6.76705 131 ft 0 kts 276°
2026-05-01 14:04 51.28058 6.76736 125 ft 4 kts 271°
2026-05-01 14:04 51.28055 6.76774 125 ft 4 kts 316°
2026-05-01 14:04 51.28051 6.76780 125 ft 3 kts 343°
2026-05-01 14:04 51.28065 6.76786 127 ft 4 kts 23°
2026-05-01 14:05 51.28094 6.76806 129 ft 1 kts 17°
2026-05-01 14:05 51.28095 6.76806 129 ft 0 kts 17°
2026-05-01 14:07 51.28096 6.76807 129 ft 1 kts 17°
2026-05-01 14:07 51.28116 6.76817 130 ft 4 kts 17°
2026-05-01 14:08 51.28200 6.76843 130 ft 8 kts
2026-05-01 14:08 51.28259 6.76853 130 ft 9 kts 357°
2026-05-01 14:08 51.28323 6.76787 126 ft 13 kts 323°
2026-05-01 14:08 51.28398 6.76695 124 ft 13 kts 321°
2026-05-01 14:09 51.28392 6.76571 124 ft 14 kts 233°
2026-05-01 14:09 51.28344 6.76470 122 ft 11 kts 232°
2026-05-01 14:09 51.28294 6.76364 123 ft 12 kts 233°
2026-05-01 14:09 51.28239 6.76250 128 ft 13 kts 233°
2026-05-01 14:10 51.28181 6.76127 129 ft 15 kts 233°
2026-05-01 14:10 51.28116 6.75993 130 ft 16 kts 232°
2026-05-01 14:10 51.28044 6.75844 128 ft 18 kts 232°
2026-05-01 14:10 51.27981 6.75711 127 ft 14 kts 233°
2026-05-01 14:11 51.27919 6.75580 127 ft 16 kts 233°
2026-05-01 14:11 51.27828 6.75381 124 ft 8 kts 261°
2026-05-01 14:11 51.27877 6.75320 124 ft 9 kts 335°
2026-05-01 14:12 51.27947 6.75266 119 ft 14 kts 334°
2026-05-01 14:12 51.28006 6.75293 121 ft 4 kts 52°
2026-05-01 14:12 51.28009 6.75299 121 ft 2 kts 53°
2026-05-01 14:12 51.28128 6.75550 128 ft 66 kts 53°
2026-05-01 14:13 51.28550 6.76438 129 ft 134 kts 53°
2026-05-01 14:13 51.28962 6.77322 269 ft 154 kts 55°
2026-05-01 14:13 51.29797 6.79112 1276 ft 151 kts 57°
2026-05-01 14:13 51.30431 6.80442 1784 ft 152 kts 57°
2026-05-01 14:14 51.31097 6.81813 2142 ft 161 kts 57°
2026-05-01 14:14 51.31773 6.83221 2739 ft 159 kts 60°
2026-05-01 14:14 51.32435 6.84617 3245 ft 160 kts 60°
2026-05-01 14:14 51.33128 6.86089 3533 ft 176 kts 58°
2026-05-01 14:15 51.33892 6.87777 3765 ft 199 kts 60°
2026-05-01 14:15 51.34808 6.89633 4058 ft 226 kts 45°
2026-05-01 14:15 51.36253 6.90783 4747 ft 241 kts 14°
2026-05-01 14:15 51.37929 6.91252 5490 ft 249 kts 10°
2026-05-01 14:16 51.39651 6.91703 6304 ft 252 kts 11°
2026-05-01 14:16 51.41386 6.92153 7156 ft 255 kts
2026-05-01 14:16 51.42595 6.92199 7681 ft 259 kts 352°
2026-05-01 14:16 51.44289 6.91200 8464 ft 263 kts 323°
2026-05-01 14:17 51.45516 6.89073 9289 ft 261 kts 295°
2026-05-01 14:17 51.46006 6.86315 10124 ft 257 kts 267°
2026-05-01 14:17 51.45692 6.83546 10861 ft 252 kts 241°
2026-05-01 14:17 51.44693 6.81285 11602 ft 249 kts 221°
2026-05-01 14:18 51.43449 6.79220 12037 ft 269 kts 222°
2026-05-01 14:18 51.42101 6.76953 12301 ft 293 kts 223°
2026-05-01 14:18 51.40666 6.74520 12518 ft 317 kts 224°
2026-05-01 14:18 51.39102 6.71857 12920 ft 332 kts 223°
2026-05-01 14:19 51.37512 6.69136 13598 ft 337 kts 224°
2026-05-01 14:19 51.35899 6.66374 14288 ft 342 kts 224°
2026-05-01 14:19 51.34264 6.63580 14923 ft 345 kts 224°
2026-05-01 14:19 51.32610 6.60762 15564 ft 349 kts 224°
2026-05-01 14:20 51.30941 6.57927 16208 ft 352 kts 223°
2026-05-01 14:20 51.27547 6.52193 17519 ft 358 kts 224°
2026-05-01 14:20 51.25823 6.49292 18142 ft 362 kts 223°
2026-05-01 14:21 51.24084 6.46366 18756 ft 365 kts 223°
2026-05-01 14:21 51.22332 6.43421 19316 ft 368 kts 225°
2026-05-01 14:21 51.20559 6.40439 19840 ft 372 kts 225°
2026-05-01 14:22 51.16957 6.34401 20889 ft 380 kts 223°
2026-05-01 14:22 51.15080 6.31391 21419 ft 384 kts 222°
2026-05-01 14:22 51.13151 6.28422 21929 ft 387 kts 222°
2026-05-01 14:22 51.11187 6.25461 22425 ft 391 kts 221°
2026-05-01 14:23 51.09193 6.22473 22905 ft 396 kts 221°
2026-05-01 14:23 51.07182 6.19453 23412 ft 400 kts 222°
2026-05-01 14:23 51.05159 6.16398 23896 ft 404 kts 222°
2026-05-01 14:23 51.03121 6.13303 24349 ft 406 kts 222°
2026-05-01 14:24 51.01083 6.10195 24817 ft 407 kts 222°
2026-05-01 14:24 50.99040 6.07074 25263 ft 409 kts 222°
2026-05-01 14:24 50.96986 6.03930 25696 ft 411 kts 222°
2026-05-01 14:24 50.94923 6.00775 26125 ft 413 kts 222°
2026-05-01 14:25 50.92847 5.97609 26554 ft 415 kts 222°
2026-05-01 14:25 50.90785 5.94475 26964 ft 417 kts 222°
2026-05-01 14:25 50.88696 5.91309 27371 ft 420 kts 223°
2026-05-01 14:25 50.86553 5.88065 27793 ft 422 kts 223°
2026-05-01 14:26 50.84455 5.84886 28204 ft 424 kts 223°
2026-05-01 14:26 50.80174 5.78408 29028 ft 428 kts 223°
2026-05-01 14:26 50.78017 5.75139 29368 ft 430 kts 223°
2026-05-01 14:27 50.75854 5.71868 29635 ft 431 kts 223°
2026-05-01 14:27 50.73690 5.68606 29930 ft 435 kts 223°
2026-05-01 14:27 50.71487 5.65294 30192 ft 440 kts 223°
2026-05-01 14:28 50.64800 5.55300 30246 ft 441 kts 222°
2026-05-01 14:28 50.60350 5.48651 30244 ft 441 kts 223°
2026-05-01 14:29 50.58122 5.45321 30435 ft 443 kts 222°
2026-05-01 14:29 50.55883 5.41986 30771 ft 443 kts 222°
2026-05-01 14:30 50.49164 5.31966 31910 ft 442 kts 224°
2026-05-01 14:30 50.47033 5.28494 32349 ft 441 kts 226°
2026-05-01 14:30 50.45000 5.24959 32789 ft 439 kts 227°
2026-05-01 14:31 50.41006 5.17769 33731 ft 435 kts 228°
2026-05-01 14:31 50.39010 5.14207 34081 ft 434 kts 227°
2026-05-01 14:31 50.37021 5.10713 34231 ft 433 kts 227°
2026-05-01 14:31 50.35009 5.07226 34388 ft 431 kts 226°
2026-05-01 14:32 50.32983 5.03753 34619 ft 432 kts 226°
2026-05-01 14:32 50.30948 5.00287 34869 ft 432 kts 226°
2026-05-01 14:32 50.28916 4.96831 35111 ft 432 kts 226°
2026-05-01 14:32 50.26894 4.93388 35225 ft 431 kts 226°
2026-05-01 14:33 50.24871 4.89934 35251 ft 431 kts 226°
2026-05-01 14:33 50.20824 4.83013 35464 ft 433 kts 226°
2026-05-01 14:33 50.18787 4.79530 35623 ft 436 kts 226°
2026-05-01 14:34 50.16731 4.76026 35756 ft 440 kts 226°
2026-05-01 14:34 50.14652 4.72505 35991 ft 441 kts 226°
2026-05-01 14:34 50.12571 4.68994 36276 ft 441 kts 226°
2026-05-01 14:34 50.10486 4.65493 36574 ft 441 kts 226°
2026-05-01 14:35 50.08398 4.61994 36871 ft 441 kts 226°
2026-05-01 14:35 50.06311 4.58496 37148 ft 441 kts 225°
2026-05-01 14:35 50.04221 4.54993 37249 ft 441 kts 225°
2026-05-01 14:36 50.00116 4.48117 37246 ft 434 kts 225°
2026-05-01 14:36 49.95991 4.41217 37246 ft 433 kts 225°
2026-05-01 14:37 49.91891 4.34386 37246 ft 432 kts 225°
2026-05-01 14:37 49.87792 4.27576 37246 ft 437 kts 225°
2026-05-01 14:38 49.83640 4.20704 37242 ft 437 kts 225°
2026-05-01 14:38 49.79412 4.13972 37241 ft 434 kts 216°
2026-05-01 14:39 49.74437 4.08744 37242 ft 432 kts 211°
2026-05-01 14:39 49.69418 4.03644 37237 ft 432 kts 211°
2026-05-01 14:40 49.64403 3.98534 37240 ft 432 kts 212°
2026-05-01 14:40 49.59399 3.93427 37239 ft 431 kts 212°
2026-05-01 14:41 49.54399 3.88339 37234 ft 430 kts 211°
2026-05-01 14:41 49.49404 3.83269 37235 ft 430 kts 211°
2026-05-01 14:42 49.44410 3.78206 37237 ft 430 kts 211°
2026-05-01 14:42 49.39412 3.73162 37227 ft 430 kts 211°
2026-05-01 14:43 49.34417 3.68116 37226 ft 430 kts 211°
2026-05-01 14:43 49.29417 3.63075 37225 ft 430 kts 211°
2026-05-01 14:44 49.24411 3.58057 37232 ft 430 kts 211°
2026-05-01 14:44 49.16894 3.50555 37236 ft 430 kts 211°
2026-05-01 14:45 49.09410 3.43101 37232 ft 430 kts 211°
2026-05-01 14:46 49.04395 3.38125 37229 ft 430 kts 211°
2026-05-01 14:46 48.96869 3.30680 37226 ft 430 kts 211°
2026-05-01 14:47 48.91855 3.25728 37222 ft 430 kts 211°
2026-05-01 14:48 48.84331 3.18311 37225 ft 430 kts 211°
2026-05-01 14:48 48.76799 3.10933 37220 ft 430 kts 211°
2026-05-01 14:49 48.66733 3.01102 37212 ft 431 kts 211°
2026-05-01 14:50 48.56665 2.91315 37220 ft 432 kts 211°
2026-05-01 14:51 48.49068 2.83968 37223 ft 432 kts 211°
2026-05-01 14:52 48.41826 2.75857 37208 ft 434 kts 217°
2026-05-01 14:53 48.34749 2.67357 37205 ft 434 kts 217°
2026-05-01 14:53 48.30013 2.61721 37208 ft 434 kts 217°
2026-05-01 14:54 48.25274 2.56092 37215 ft 434 kts 217°
2026-05-01 14:54 48.20514 2.50503 37212 ft 435 kts 217°
2026-05-01 14:55 48.15721 2.44959 37213 ft 435 kts 217°
2026-05-01 14:55 48.10909 2.39458 37215 ft 435 kts 217°
2026-05-01 14:56 48.06089 2.33961 37218 ft 436 kts 217°
2026-05-01 14:56 48.01270 2.28471 37222 ft 436 kts 217°
2026-05-01 14:57 47.96378 2.23131 37229 ft 436 kts 210°
2026-05-01 14:57 47.88496 2.16568 37240 ft 434 kts 210°
2026-05-01 14:58 47.83216 2.12211 37239 ft 433 kts 210°
2026-05-01 14:58 47.77940 2.07874 37203 ft 434 kts 211°
2026-05-01 14:59 47.72659 2.03536 37202 ft 434 kts 211°
2026-05-01 14:59 47.67377 1.99206 37193 ft 433 kts 211°
2026-05-01 15:00 47.59473 1.92696 37203 ft 433 kts 211°
2026-05-01 15:01 47.54220 1.88331 37200 ft 433 kts 211°
2026-05-01 15:01 47.48967 1.83992 37215 ft 432 kts 212°
2026-05-01 15:02 47.43714 1.79666 37226 ft 433 kts 212°
2026-05-01 15:02 47.38456 1.75342 37227 ft 432 kts 211°
2026-05-01 15:03 47.34087 1.71770 37215 ft 431 kts 212°
2026-05-01 15:03 47.28843 1.67491 37216 ft 431 kts 212°
2026-05-01 15:04 47.23597 1.63214 37220 ft 431 kts 211°
2026-05-01 15:04 47.18350 1.58942 37218 ft 431 kts 211°
2026-05-01 15:05 47.13101 1.54685 37204 ft 431 kts 211°
2026-05-01 15:05 47.07854 1.50432 37208 ft 430 kts 211°
2026-05-01 15:06 47.02614 1.46193 37214 ft 430 kts 211°
2026-05-01 15:06 46.97363 1.41964 37218 ft 430 kts 211°
2026-05-01 15:07 46.92118 1.37743 37209 ft 430 kts 211°
2026-05-01 15:07 46.86875 1.33525 37213 ft 430 kts 211°
2026-05-01 15:08 46.81652 1.29350 37212 ft 430 kts 210°
2026-05-01 15:08 46.76409 1.25169 37207 ft 429 kts 210°
2026-05-01 15:09 46.71205 1.21013 37225 ft 429 kts 210°
2026-05-01 15:09 46.65968 1.16839 37218 ft 429 kts 210°
2026-05-01 15:10 46.60732 1.12686 37220 ft 429 kts 210°
2026-05-01 15:10 46.52870 1.06474 37217 ft 429 kts 210°
2026-05-01 15:11 46.45016 1.00283 37215 ft 428 kts 210°
2026-05-01 15:12 46.39783 0.96149 37219 ft 428 kts 210°
2026-05-01 15:12 46.31922 0.89979 37216 ft 428 kts 210°
2026-05-01 15:14 46.18825 0.79750 37218 ft 429 kts 210°
2026-05-01 15:14 46.10981 0.73651 37208 ft 429 kts 209°
2026-05-01 15:15 46.00464 0.65505 37206 ft 429 kts 209°
2026-05-01 15:16 45.89937 0.57383 37189 ft 430 kts 209°
2026-05-01 15:18 45.76763 0.47264 37182 ft 430 kts 209°
2026-05-01 15:19 45.66204 0.39206 37174 ft 430 kts 209°
2026-05-01 15:19 45.58282 0.33169 37178 ft 430 kts 209°
2026-05-01 15:20 45.50345 0.27148 37164 ft 431 kts 208°
2026-05-01 15:21 45.45041 0.23131 37162 ft 431 kts 208°
2026-05-01 15:21 45.39736 0.19131 37166 ft 432 kts 208°
2026-05-01 15:22 45.31773 0.13137 37169 ft 432 kts 208°
2026-05-01 15:22 45.26458 0.09146 37168 ft 432 kts 208°
2026-05-01 15:23 45.21139 0.05158 37169 ft 432 kts 208°
2026-05-01 15:23 45.15819 0.01180 37160 ft 433 kts 208°
2026-05-01 15:24 45.10488 -0.02790 37167 ft 433 kts 209°
2026-05-01 15:24 45.05151 -0.06765 37163 ft 433 kts 208°
2026-05-01 15:25 44.99814 -0.10731 37169 ft 434 kts 209°
2026-05-01 15:25 44.94466 -0.14698 37161 ft 434 kts 209°
2026-05-01 15:26 44.89122 -0.18659 37168 ft 434 kts 209°
2026-05-01 15:26 44.83804 -0.22585 37166 ft 434 kts 208°
2026-05-01 15:27 44.78411 -0.26549 37162 ft 434 kts 208°
2026-05-01 15:28 44.70378 -0.32453 37165 ft 434 kts 208°
2026-05-01 15:28 44.65015 -0.36383 37174 ft 435 kts 208°
2026-05-01 15:29 44.57014 -0.42245 37168 ft 434 kts 209°
2026-05-01 15:30 44.46287 -0.50052 37168 ft 434 kts 208°
2026-05-01 15:31 44.30201 -0.61708 37155 ft 434 kts 208°
2026-05-01 15:32 44.19467 -0.69428 37153 ft 434 kts 209°
2026-05-01 15:34 44.03369 -0.80968 37155 ft 434 kts 209°